This is the latest recevied weather packets stored in our database for station/object KF7SOJ. If no packets are shown the sender has not sent any weather packets the latest 10 day(s).
| Time | Temp. | Humidity | Pressure | Rain* | Wind** | Luminosity | Snow |
|---|---|---|---|---|---|---|---|
| 1777901012 | 8.33° C | 58% | 931.9 hPa | 0 mm | - | 46 W/m² | - |
| 1777900709 | 8.33° C | 59% | 931.9 hPa | 0 mm | - | 43 W/m² | - |
| 1777900406 | 7.78° C | 59% | 931.8 hPa | 0 mm | - | 38 W/m² | - |
| 1777900103 | 7.78° C | 59% | 931.7 hPa | 0 mm | - | 33 W/m² | - |
| 1777899800 | 7.78° C | 59% | 931.4 hPa | 0 mm | - | 29 W/m² | - |
| 1777899497 | 7.78° C | 58% | 931.6 hPa | 0 mm | - | 22 W/m² | - |
| 1777899195 | 7.22° C | 59% | 931.6 hPa | 0 mm | - | 18 W/m² | - |
| 1777898892 | 7.22° C | 61% | 931.4 hPa | 0 mm | - | 15 W/m² | - |
| 1777898589 | 7.22° C | 60% | 931.4 hPa | 0 mm | - | 18 W/m² | - |
| 1777898286 | 7.22° C | 60% | 931.4 hPa | 0 mm | - | 14 W/m² | - |
| 1777897983 | 7.22° C | 58% | 931 hPa | 0 mm | - | 12 W/m² | - |
| 1777897679 | 6.67° C | 59% | 931.1 hPa | 0 mm | - | 8 W/m² | - |
| 1777897375 | 6.67° C | 60% | 931 hPa | 0 mm | - | 7 W/m² | - |
| 1777897071 | 6.11° C | 60% | 930.8 hPa | 0 mm | - | 7 W/m² | - |
| 1777896768 | 6.67° C | 59% | 930.8 hPa | 0 mm | - | 7 W/m² | - |
| 1777896466 | 6.11° C | 59% | 930.8 hPa | 0 mm | - | 7 W/m² | - |
| 1777896163 | 6.11° C | 59% | 930.7 hPa | 0 mm | - | 5 W/m² | - |
| 1777895861 | 6.11° C | 59% | 930.6 hPa | 0 mm | - | 3 W/m² | - |
| 1777895558 | 6.67° C | 59% | 930.4 hPa | 0 mm | - | 2 W/m² | - |
| 1777895255 | 6.67° C | 58% | 930.3 hPa | 0 mm | - | 1 W/m² | - |
| 1777894953 | 6.67° C | 57% | 930.3 hPa | 0 mm | - | 0 W/m² | - |
| 1777894650 | 7.22° C | 56% | 930.1 hPa | 0 mm | - | 0 W/m² | - |
| 1777894347 | 7.22° C | 56% | 930.1 hPa | 0 mm | - | 0 W/m² | - |
| 1777894044 | 7.22° C | 55% | 930 hPa | 0 mm | - | 0 W/m² | - |
| 1777893740 | 7.22° C | 54% | 929.9 hPa | 0 mm | - | 0 W/m² | - |
* Rain latest hour (hover to see other rain measurements)
** Current wind speed in m/s (hover to see current wind gust speed)